Back to catalog

DELTA 1 DEB

AlivePO
NORAD 42632·DEBRIS·🇺🇸 United States

Launched Jun 12, 1975 from Vandenberg Space Force Base

Loading…

Next Passes (next 24 hours)

TLE

FreshSource: Space-Track

Epoch: Sep 13, 2026, 13:57 UTC

1 42632U 75052LR  26256.58154472  .00000162  00000-0  71692-3 0  9990
2 42632  99.5742 306.8422 0400795 201.6362 156.7368 12.70130511551542

Track DELTA 1 DEB in real time with AllMySat

Download on the App Store